Hourly Data Report for February 12, 2016

All times are specified in Local Standard Time (LST). Add 1 hour to adjust for Daylight Saving Time where and when it is observed.

Metadata including Station Name, Province, Latitude, Longitude, Elevation, Climate ID, WMO ID, TC ID
GRAND ETANG
NOVA SCOTIA
Latitude: 46°33'00.000" N Longitude: 61°03'00.000" W Elevation: 12.80 m
Climate ID: 8201969 WMO ID: TC ID: WZQ
Hourly Data Report for February 12, 2016
Temp Definition
°C

Dew Point Temp Definition
°C

Rel Hum Definition
%

Wind Dir Definition
10's deg
Wind Spd Definition
km/h

Visibility Definition
km

Stn Press Definition
kPa

Hmdx Definition

Wind Chill Definition

Weather Definition

00:00 -2.1 LegendMM 90 33 7 99.77 -5 LegendNANA
01:00 -3.0 LegendMM 93 31 3 99.76 -4 LegendNANA
02:00 -2.9 LegendMM 94 31 23 99.77 -9 LegendNANA
03:00 -2.9 LegendMM 91 31 24 99.83 -10 LegendNANA
04:00 -3.2 LegendMM 91 31 24 99.87 -10 LegendNANA
05:00 -3.8 LegendMM 91 30 25 99.97 -11 LegendNANA
06:00 -3.8 LegendMM 86 30 18 100.04 -10 LegendNANA
07:00 -4.3 LegendMM 96 24 45 100.11 -14 LegendNANA
08:00 -4.7 LegendMM 94 22 44 100.23 -14 LegendNANA
09:00 -4.6 LegendMM 91 22 45 100.30 -14 LegendNANA
10:00 -5.0 LegendMM 86 23 50 100.42 -15 LegendNANA
11:00 -5.4 LegendMM 81 24 47 100.53 -15 LegendNANA
12:00 -5.9 LegendMM 81 23 47 100.62 -16 LegendNANA
13:00 -6.8 LegendMM 81 22 45 100.72 -17 LegendNANA
14:00 -7.1 LegendMM 78 22 38 100.77 -17 LegendNANA
15:00 -7.5 LegendMM 77 23 33 100.83 -17 LegendNANA
16:00 -8.0 LegendMM 85 24 37 100.93 -18 LegendNANA
17:00 -8.6 LegendMM 80 23 40 101.01 -19 LegendNANA
18:00 -8.9 LegendMM 85 22 31 101.17 -18 LegendNANA
19:00 -8.8 LegendMM 86 21 31 101.28 -18 LegendNANA
20:00 -8.4 LegendMM 79 23 37 101.30 -18 LegendNANA
21:00 -8.0 LegendMM 77 22 34 101.34 -17 LegendNANA
22:00 -8.0 LegendMM 75 22 28 101.38 -17 LegendNANA
23:00 -7.9 LegendMM 75 22 29 101.39 -17 LegendNANA

Notes on Data Quality.

Legend
  • E = Estimated
  • M = Missing
  • NA = Not Available
  • ‡ = Partner data that is not subject to review by the National Climate Archives